• In Hungary
  • List of Countries
  • For 7 days
  • Water Temperature
  • Satellite Maps
  • Weather Map
  • News
  • Weather Widgets
  • user-avatar
    Login

    Hourly Weather Oshakovo

    Today, 16 October, Tuesday

    Time Temperature Precipitation Wind Pressure Humidity
    00:00 +8°C° 0 mm 2 mps 745 mmHg 83%
    01:00 +8°C° 0 mm 2 mps 745 mmHg 83%
    02:00 +8°C° 0 mm 2 mps 745 mmHg 84%
    03:00 +8°C° 0 mm 2 mps 745 mmHg 83%
    04:00 +7°C° 0 mm 2 mps 744 mmHg 83%
    05:00 +7°C° 0 mm 2 mps 744 mmHg 83%
    06:00 +8°C° 0 mm 3 mps 744 mmHg 80%
    07:00 +8°C° 0 mm 3 mps 744 mmHg 78%
    08:00 +8°C° 0 mm 3 mps 744 mmHg 76%
    09:00 +10°C° 0 mm 3 mps 744 mmHg 71%
    10:00 +11°C° 0 mm 3 mps 744 mmHg 65%
    11:00 +13°C° 0 mm 3 mps 744 mmHg 60%
    12:00 +13°C° 0 mm 3 mps 744 mmHg 59%
    13:00 +14°C° 0 mm 3 mps 743 mmHg 57%
    14:00 +16°C° 0 mm 3 mps 743 mmHg 55%
    15:00 +13°C° 0 mm 3 mps 743 mmHg 61%
    16:00 +12°C° 0 mm 3 mps 743 mmHg 66%
    17:00 +11°C° 0 mm 3 mps 743 mmHg 71%
    18:00 +11°C° 0 mm 3 mps 743 mmHg 73%
    19:00 +10°C° 0 mm 3 mps 743 mmHg 75%
    20:00 +10°C° 0 mm 3 mps 743 mmHg 77%
    21:00 +9°C° 0 mm 3 mps 743 mmHg 80%
    22:00 +9°C° 0 mm 2 mps 743 mmHg 83%
    23:00 +8°C° 0 mm 2 mps 743 mmHg 86%

    Tomorrow, 17 October, Wednesday

    Time Temperature Precipitation Wind Pressure Humidity
    00:00 +8°C° 0 mm 2 mps 743 mmHg 88%
    01:00 +7°C° 0 mm 2 mps 744 mmHg 91%
    02:00 +7°C° 0 mm 2 mps 744 mmHg 93%
    03:00 +7°C° 0 mm 2 mps 744 mmHg 93%
    04:00 +8°C° 0 mm 1 mps 744 mmHg 94%
    05:00 +7°C° 0 mm 1 mps 744 mmHg 94%
    06:00 +8°C° 0 mm 1 mps 744 mmHg 92%
    07:00 +8°C° 0 mm 1 mps 744 mmHg 90%
    08:00 +9°C° 0 mm 1 mps 744 mmHg 88%
    09:00 +10°C° 0 mm 1 mps 745 mmHg 82%
    10:00 +12°C° 0 mm 1 mps 745 mmHg 75%
    11:00 +13°C° 0 mm 1 mps 745 mmHg 69%
    12:00 +14°C° 0 mm 1 mps 745 mmHg 67%
    13:00 +14°C° 0 mm 1 mps 745 mmHg 65%
    14:00 +15°C° 0 mm 1 mps 745 mmHg 64%
    15:00 +14°C° 0 mm 1 mps 745 mmHg 70%
    16:00 +12°C° 0 mm 1 mps 744 mmHg 75%
    17:00 +11°C° 0 mm 1 mps 744 mmHg 81%
    18:00 +11°C° 0 mm 1 mps 744 mmHg 84%
    19:00 +10°C° 0 mm 1 mps 744 mmHg 86%
    20:00 +10°C° 0 mm 1 mps 744 mmHg 88%
    21:00 +9°C° 0 mm 1 mps 744 mmHg 89%
    22:00 +9°C° 0 mm 1 mps 744 mmHg 91%
    23:00 +9°C° 0 mm 1 mps 744 mmHg 92%

    Day after tomorrow, 18 October, Thursday

    Time Temperature Precipitation Wind Pressure Humidity
    00:00 +8°C° 0 mm 2 mps 744 mmHg 93%
    01:00 +7°C° 0 mm 2 mps 744 mmHg 93%
    02:00 +7°C° 0 mm 2 mps 744 mmHg 94%
    03:00 +7°C° 0 mm 2 mps 744 mmHg 94%
    04:00 +7°C° 0 mm 2 mps 743 mmHg 94%
    05:00 +7°C° 0 mm 2 mps 743 mmHg 94%
    06:00 +7°C° 0 mm 2 mps 743 mmHg 93%
    07:00 +7°C° 0 mm 2 mps 743 mmHg 91%
    08:00 +8°C° 0 mm 2 mps 743 mmHg 89%
    09:00 +9°C° 0 mm 2 mps 743 mmHg 83%
    10:00 +12°C° 0 mm 2 mps 743 mmHg 77%
    11:00 +13°C° 0 mm 2 mps 743 mmHg 71%
    12:00 +14°C° 0 mm 2 mps 742 mmHg 69%
    13:00 +13°C° 0 mm 3 mps 742 mmHg 67%
    14:00 +14°C° 0 mm 3 mps 742 mmHg 65%
    15:00 +14°C° 0 mm 2 mps 741 mmHg 72%
    16:00 +12°C° 0 mm 2 mps 741 mmHg 79%
    17:00 +10°C° 0 mm 2 mps 741 mmHg 86%
    18:00 +10°C° 0 mm 2 mps 741 mmHg 88%
    19:00 +10°C° 0 mm 2 mps 741 mmHg 90%
    20:00 +9°C° 0 mm 2 mps 740 mmHg 92%
    21:00 +9°C° 0 mm 2 mps 740 mmHg 92%
    22:00 +9°C° 0 mm 2 mps 740 mmHg 92%
    23:00 +9°C° 0 mm 2 mps 740 mmHg 91%

    19 October, Friday

    Time Temperature Precipitation Wind Pressure Humidity
    00:00 +8°C° 0 mm 2 mps 740 mmHg 91%
    01:00 +8°C° 0 mm 2 mps 740 mmHg 91%
    02:00 +8°C° 0 mm 2 mps 740 mmHg 91%
    03:00 +8°C° 0 mm 2 mps 740 mmHg 92%
    04:00 +8°C° 0 mm 2 mps 739 mmHg 92%
    05:00 +7°C° 0 mm 2 mps 739 mmHg 93%
    06:00 +8°C° 0 mm 2 mps 739 mmHg 92%
    07:00 +8°C° 0 mm 2 mps 740 mmHg 92%
    08:00 +8°C° 0 mm 2 mps 740 mmHg 91%
    09:00 +9°C° 0 mm 2 mps 740 mmHg 89%
    10:00 +10°C° 0 mm 2 mps 740 mmHg 87%
    11:00 +10°C° 0 mm 2 mps 740 mmHg 85%
    12:00 +10°C° 0 mm 2 mps 740 mmHg 84%
    13:00 +10°C° 0 mm 2 mps 740 mmHg 84%
    14:00 +10°C° 0 mm 2 mps 740 mmHg 84%
    15:00 +10°C° 0 mm 2 mps 740 mmHg 86%
    16:00 +9°C° 0 mm 2 mps 740 mmHg 88%
    17:00 +8°C° 0 mm 2 mps 740 mmHg 89%
    18:00 +7°C° 0 mm 2 mps 740 mmHg 89%
    19:00 +6°C° 0 mm 2 mps 740 mmHg 89%
    20:00 +5°C° 0 mm 2 mps 741 mmHg 88%
    21:00 +6°C° 0 mm 1 mps 741 mmHg 87%
    22:00 +5°C° 0 mm 1 mps 741 mmHg 86%
    23:00 +5°C° 0 mm 1 mps 741 mmHg 85%

    20 October, Saturday

    Time Temperature Precipitation Wind Pressure Humidity
    00:00 +5°C° 0 mm 1 mps 741 mmHg 87%
    01:00 +4°C° 0 mm 1 mps 741 mmHg 89%
    02:00 +4°C° 0 mm 1 mps 741 mmHg 91%
    03:00 +4°C° 0 mm 1 mps 741 mmHg 92%
    04:00 +3°C° 0 mm 1 mps 741 mmHg 94%
    05:00 +3°C° 0 mm 1 mps 741 mmHg 95%
    06:00 +3°C° 0 mm 1 mps 741 mmHg 95%
    07:00 +3°C° 0 mm 2 mps 741 mmHg 94%
    08:00 +3°C° 0 mm 2 mps 741 mmHg 93%
    09:00 +4°C° 0 mm 2 mps 741 mmHg 89%
    10:00 +5°C° 0 mm 2 mps 741 mmHg 85%
    11:00 +6°C° 0 mm 2 mps 741 mmHg 81%
    12:00 +6°C° 0 mm 2 mps 741 mmHg 78%
    13:00 +6°C° 0 mm 2 mps 741 mmHg 76%
    14:00 +6°C° 0 mm 2 mps 740 mmHg 74%
    15:00 +6°C° 0 mm 2 mps 740 mmHg 77%
    16:00 +6°C° 0 mm 1 mps 740 mmHg 80%
    17:00 +6°C° 0 mm 1 mps 740 mmHg 83%
    18:00 +6°C° 0 mm 1 mps 740 mmHg 84%
    19:00 +5°C° 0 mm 1 mps 740 mmHg 85%
    20:00 +5°C° 0 mm 1 mps 740 mmHg 85%
    21:00 +5°C° 0 mm 1 mps 740 mmHg 88%
    22:00 +5°C° 0 mm 1 mps 739 mmHg 90%
    23:00 +4°C° 0 mm 1 mps 739 mmHg 92%

    21 October, Sunday

    Time Temperature Precipitation Wind Pressure Humidity
    00:00 +4°C° 0 mm 1 mps 739 mmHg 93%
    01:00 +4°C° 0 mm 1 mps 739 mmHg 95%
    02:00 +3°C° 0 mm 1 mps 739 mmHg 96%
    03:00 +3°C° 0 mm 1 mps 738 mmHg 97%
    04:00 +3°C° 0 mm 1 mps 738 mmHg 97%
    05:00 +3°C° 0 mm 1 mps 738 mmHg 97%
    06:00 +2°C° 0 mm 2 mps 738 mmHg 96%
    07:00 +2°C° 0 mm 2 mps 738 mmHg 94%
    08:00 +3°C° 0 mm 2 mps 738 mmHg 92%
    09:00 +3°C° 0.1 mm 2 mps 738 mmHg 89%
    10:00 +4°C° 0.1 mm 2 mps 738 mmHg 85%
    11:00 +5°C° 0.1 mm 2 mps 738 mmHg 81%
    12:00 +4°C° 0.2 mm 3 mps 738 mmHg 82%
    13:00 +4°C° 0.2 mm 3 mps 738 mmHg 83%
    14:00 +5°C° 0.2 mm 3 mps 738 mmHg 83%
    15:00 +5°C° 0 mm 2 mps 738 mmHg 85%
    16:00 +5°C° 0 mm 2 mps 738 mmHg 86%
    17:00 +5°C° 0 mm 2 mps 738 mmHg 87%
    18:00 +4°C° 0 mm 2 mps 738 mmHg 89%
    19:00 +4°C° 0 mm 2 mps 738 mmHg 90%
    20:00 +3°C° 0 mm 2 mps 738 mmHg 92%
    21:00 +3°C° 0 mm 2 mps 738 mmHg 92%
    22:00 +3°C° 0 mm 2 mps 737 mmHg 92%
    23:00 +3°C° 0 mm 2 mps 737 mmHg 91%
    Show more